CAPE
nan nan nan nan nan nan nan nan nan nan nan nan nan nan nan nan nan nan nan nan nan nan nan nan nan nan nan nan nan nan nan nan nan nan nan nan nan nan nan nan nan 2 5 10 10 15 16 17 17 18 18 18 19 19 23 27 27 34 41 45 45 45 48 47 47 44 40 33 30 30 25 20 15 15 10 9 7 7 4 3 3 9 16 18 18 14
nan nan nan nan nan nan nan nan nan nan nan nan nan nan nan nan nan nan nan nan nan nan nan nan nan nan nan nan nan nan nan nan nan nan nan nan nan nan nan nan nan nan nan 3 3 9 13 19 19 19 18 17 19 19 20 28 28 33 39 44 44 48 50 50 50 48 46 38 29 29 25 21 16 16 14 15 14 14 8 4 4 6 12 17 17 21
nan nan nan nan nan nan nan nan nan nan nan nan nan nan nan nan nan nan nan nan nan nan nan nan nan nan nan nan nan nan nan nan nan nan nan nan nan nan nan nan nan nan nan nan nan 0 3 10 10 15 19 22 22 22 23 29 29 32 37 41 41 44 50 50 50 51 48 36 28 28 20 15 14 14 17 20 18 18 14 9 9 10 15 20 20 23
nan nan nan nan nan nan nan nan nan nan nan nan nan nan nan nan nan nan nan nan nan nan nan nan nan nan nan nan nan nan nan nan nan nan nan nan nan nan nan nan nan nan nan nan nan nan nan 1 1 4 9 16 18 18 20 23 23 26 27 31 31 33 41 50 50 57 48 35 21 21 13 13 15 15 21 23 23 23 19 17 17 19 22 26 26 31
nan nan nan nan nan nan nan nan nan nan nan nan nan nan nan nan nan nan nan nan nan nan nan nan nan nan nan nan nan nan nan nan nan nan nan nan nan nan nan nan nan nan nan nan nan nan nan nan nan nan 1 3 3 3 9 11 11 13 15 18 18 22 32 45 45 50 40 31 23 23 15 13 17 17 23 28 29 29 33 30 30 34 35 36 36 37
nan nan nan nan nan nan nan nan nan nan nan nan nan nan nan nan nan nan nan nan nan nan nan nan nan nan nan nan nan nan nan nan nan nan nan nan nan nan nan nan nan nan nan nan nan nan 0 0 0 0 0 0 1 1 1 1 1 3 5 9 9 22 36 38 38 31 25 22 14 14 8 7 8 8 11 17 23 23 28 32 32 40 41 43 43 45
nan nan nan nan nan nan nan nan nan nan nan nan nan nan nan nan nan nan nan nan nan nan nan nan nan nan nan nan nan nan nan nan nan nan nan nan nan nan nan nan nan nan 0 1 1 1 1 1 1 1 1 2 2 2 2 3 3 3 7 8 8 14 22 21 21 18 15 9 3 3 0 nan nan nan nan nan 2 2 12 23 23 32 37 42 42 46
nan nan nan nan nan nan nan nan 0 0 1 nan nan nan nan nan nan nan nan 0 0 nan nan nan nan nan nan nan nan nan nan nan nan nan nan nan nan nan nan nan nan nan nan nan nan 0 1 2 2 1 0 0 0 0 0 0 0 nan nan nan nan nan nan 0 0 1 2 0 nan nan nan nan nan nan nan nan nan nan 0 2 2 11 19 26 26 31
0 nan nan 0 0 nan nan nan 1 1 1 0 nan nan nan nan nan nan nan nan nan 0 nan nan nan nan nan nan nan nan nan nan nan nan nan nan nan nan nan nan nan nan nan nan nan nan nan nan nan nan nan nan nan nan nan nan nan nan nan nan nan nan nan nan nan 0 1 0 0 0 nan nan nan nan nan nan nan nan 0 2 2 5 11 19 19 24
1 0 nan 0 0 3 nan nan 1 1 2 nan nan nan nan nan nan nan nan nan nan nan nan nan nan nan nan nan nan nan nan nan nan nan nan nan nan nan nan nan nan nan nan nan nan nan nan nan nan nan nan nan nan nan nan nan nan nan nan nan nan nan nan nan nan nan nan nan 0 0 0 0 0 0 0 0 0 0 1 2 2 3 7 12 12 15
0 1 1 1 1 2 3 1 2 2 2 nan nan nan nan nan nan nan nan nan nan nan nan nan nan nan nan nan nan nan nan nan nan nan nan nan nan nan nan nan nan nan nan nan nan nan nan nan nan nan nan nan nan nan nan nan nan nan nan nan nan nan nan nan nan nan nan 0 1 1 2 2 2 2 2 1 1 1 1 2 2 2 4 7 7 11
2 3 4 3 3 3 3 4 3 3 2 0 nan nan nan 0 0 0 0 nan nan nan nan nan nan nan nan nan nan nan nan nan nan nan nan nan nan nan nan nan nan nan nan nan nan nan nan nan nan nan nan nan nan nan nan nan nan nan nan nan nan nan nan nan nan 0 2 3 6 6 6 8 8 8 9 6 5 5 4 3 3 3 3 5 5 7
8 8 7 7 7 7 4 4 2 2 1 0 nan nan 0 1 1 1 0 0 0 0 0 nan nan 0 0 0 nan nan nan nan nan nan nan nan nan nan nan nan nan nan nan nan nan nan nan nan nan nan nan nan nan nan nan nan nan nan nan nan nan nan 1 3 3 7 10 13 15 15 17 17 18 18 16 14 11 11 8 7 7 6 4 5 5 7
13 14 13 10 10 8 10 6 4 4 2 1 2 2 3 3 2 2 1 1 1 2 2 1 1 1 1 2 1 1 nan nan nan nan nan nan nan nan nan nan nan nan nan nan nan nan nan nan nan nan nan nan nan nan nan nan nan nan nan 0 0 2 4 9 9 11 16 20 23 23 25 25 24 24 23 21 17 17 13 10 10 8 7 7 7 8
18 16 11 8 8 7 8 7 3 3 2 4 7 7 6 5 4 4 3 2 2 3 3 2 2 1 0 3 0 0 nan nan nan nan nan 0 1 1 nan nan nan nan nan nan nan nan nan nan nan nan nan nan nan nan nan nan nan nan 0 1 1 2 4 7 7 12 18 23 25 25 26 26 26 26 25 23 21 21 18 14 14 11 11 10 10 10
16 12 7 5 5 3 3 4 4 4 4 6 6 6 6 5 5 5 5 5 5 6 4 3 3 1 0 2 nan nan nan nan 1 1 0 0 3 3 2 nan nan nan nan nan nan nan nan nan nan nan nan nan nan nan nan nan nan 0 1 1 1 2 4 7 7 12 18 21 26 26 28 26 28 28 26 26 22 22 20 17 17 16 15 13 13 14
9 6 4 2 2 1 1 3 4 4 4 5 7 7 8 7 8 8 9 10 10 9 8 7 7 4 3 2 2 2 nan nan 5 5 4 2 3 3 9 1 1 0 nan nan nan nan nan nan nan nan nan nan nan nan nan 0 0 1 3 3 3 3 5 9 9 16 23 23 27 27 29 30 29 29 29 26 23 23 22 22 22 20 20 19 19 19
4 3 2 1 1 1 1 2 2 2 4 4 7 7 11 13 13 13 15 16 16 15 16 14 14 8 8 4 5 5 nan 1 12 12 10 5 3 3 10 4 4 1 1 nan nan nan nan nan nan nan nan nan nan nan 1 4 4 5 6 7 7 7 9 16 16 23 26 28 31 31 33 34 33 33 33 30 29 29 29 28 28 25 24 24 24 23
3 2 1 1 1 1 2 2 2 2 4 8 12 12 16 18 18 18 18 21 21 19 19 16 16 14 13 10 10 10 nan 4 18 18 13 8 5 5 6 5 5 5 3 1 1 1 1 1 1 2 2 3 4 4 6 9 9 11 12 12 12 13 14 23 23 32 35 36 37 37 39 39 37 37 37 35 34 34 32 30 30 31 27 29 29 27
2 1 1 1 1 3 2 3 4 4 11 21 28 28 28 24 23 23 24 25 25 27 21 20 20 22 16 13 13 13 10 14 19 19 12 7 2 2 3 4 4 7 7 5 5 8 6 5 5 5 4 5 9 9 12 13 13 16 18 19 19 19 21 29 29 36 43 43 45 45 47 45 45 45 46 38 40 40 35 35 35 35 32 34 34 30
1 0 0 2 2 3 3 4 12 12 26 35 31 31 21 21 21 21 21 22 22 24 22 17 17 17 12 14 12 12 18 24 13 13 6 4 1 1 2 7 7 9 13 13 13 15 16 11 11 7 5 8 11 11 14 18 18 21 22 24 24 23 24 29 29 41 49 54 55 55 53 53 50 50 51 47 44 44 42 41 41 37 39 38 38 35
1 1 2 7 7 8 9 12 24 24 32 33 22 22 16 16 14 14 13 11 11 11 13 10 10 8 8 8 7 7 9 14 9 9 6 4 3 3 2 9 9 15 13 10 10 12 15 10 10 6 8 13 16 16 17 20 20 23 24 24 24 24 26 31 31 40 50 56 58 58 59 61 57 57 57 55 51 51 46 45 45 45 43 44 44 38
3 6 8 12 12 14 17 18 25 25 29 24 16 16 14 13 9 9 9 8 8 8 8 8 8 7 5 2 1 1 3 5 11 11 11 5 1 1 2 7 7 8 5 3 3 3 7 9 9 8 11 18 18 18 18 18 18 19 22 23 23 25 28 31 31 36 44 51 57 57 60 63 63 63 67 66 57 57 53 49 49 47 43 43 43 43
14 15 17 20 20 18 19 21 19 19 16 14 12 12 17 12 9 9 7 8 8 8 8 4 4 3 1 0 0 0 3 11 18 18 10 4 0 0 0 1 1 1 1 1 1 0 2 2 2 2 5 15 15 15 15 15 15 19 23 27 27 31 33 34 34 35 38 45 48 48 54 61 70 70 76 74 65 65 61 52 52 51 47 43 43 47
22 20 17 15 15 19 13 9 9 9 8 6 9 9 12 16 13 13 10 8 8 7 5 4 4 1 0 1 0 0 3 7 8 8 3 2 0 0 0 0 0 0 0 0 0 nan nan nan nan nan 0 6 13 13 16 20 20 27 31 34 34 35 38 36 36 36 35 37 47 47 56 64 74 74 84 84 75 75 69 60 60 57 47 44 44 49
17 12 7 9 9 19 23 26 24 24 17 8 7 7 6 8 7 7 6 4 4 3 4 3 3 1 nan nan nan nan nan 3 1 1 1 2 2 2 1 1 1 1 1 1 1 1 1 1 1 1 2 6 17 17 22 30 30 35 40 41 41 42 42 40 40 41 41 42 51 51 58 67 75 75 86 88 83 83 74 64 64 54 45 46 46 46
12 10 12 14 14 16 16 17 19 19 24 18 7 7 7 8 8 8 5 3 3 3 3 1 1 0 0 0 0 0 nan 1 1 1 2 4 6 6 5 5 5 6 7 6 6 6 9 7 7 7 8 9 19 19 29 34 34 37 42 45 45 48 45 45 45 46 43 44 47 47 56 62 68 68 72 78 76 76 73 61 61 53 48 40 40 43
3 2 4 6 6 7 8 10 13 13 15 17 23 23 15 9 7 7 4 2 2 3 3 1 1 1 1 0 0 0 0 2 2 2 6 9 7 7 7 7 7 12 13 9 9 12 21 17 17 15 13 13 14 14 24 29 29 34 39 41 41 44 40 37 37 38 35 36 39 39 42 47 52 52 55 57 57 57 55 52 52 48 41 28 28 19
nan nan 0 1 1 2 4 6 7 7 9 15 23 23 17 8 6 6 3 3 3 4 3 2 2 2 2 2 1 1 2 1 1 1 11 8 10 10 6 9 9 16 11 7 7 11 12 8 8 9 9 11 12 12 19 22 22 23 21 20 20 18 20 22 22 22 22 23 26 26 30 35 39 39 42 45 43 43 45 39 39 38 29 20 20 18
nan nan nan 0 0 0 0 nan 1 1 5 13 18 18 16 6 5 5 3 3 3 5 5 5 5 5 3 2 2 2 1 nan 3 3 11 4 3 3 2 7 7 13 11 4 4 3 1 1 1 2 3 6 4 4 5 9 9 6 5 9 9 8 10 12 12 13 16 20 22 22 23 28 31 31 36 37 38 38 39 36 36 31 23 20 20 25
nan nan nan nan nan nan nan nan 0 0 3 8 9 9 6 2 1 1 1 4 4 6 8 7 7 5 4 3 1 1 0 nan 6 6 11 8 4 4 8 15 15 17 11 3 3 1 0 nan nan 0 3 3 2 2 2 2 2 2 1 2 2 5 9 10 10 14 17 21 23 23 24 26 28 28 32 34 37 37 39 39 39 36 29 32 32 38
nan nan nan nan nan nan nan nan nan nan nan nan 0 0 2 5 6 6 8 10 10 11 13 10 10 8 8 7 4 4 2 2 5 5 14 7 10 10 6 3 3 2 2 5 5 4 0 1 1 0 0 0 0 0 0 1 1 1 2 2 2 1 6 12 12 13 13 17 19 19 21 24 26 26 29 30 33 33 36 37 37 42 34 37 37 48
nan nan nan nan nan nan nan nan nan nan nan 0 1 1 3 6 12 12 13 15 15 16 12 10 10 7 5 4 3 3 2 1 8 8 13 5 4 4 3 3 3 4 3 5 5 2 1 1 1 0 0 1 0 0 1 1 1 2 2 2 2 0 2 6 6 6 8 9 12 12 18 20 23 23 25 29 33 33 38 38 38 41 42 29 29 37
nan nan nan nan nan nan nan nan nan nan nan 1 2 2 3 7 12 12 16 14 14 12 9 6 6 5 5 3 2 2 1 nan 5 5 9 6 4 4 6 4 4 2 2 3 3 2 1 2 2 1 0 1 1 1 0 1 1 2 3 2 2 0 0 1 1 2 3 5 3 3 7 7 18 18 16 21 24 24 28 33 33 36 42 39 39 36
nan nan nan nan nan nan nan nan nan nan 0 nan nan nan 0 2 4 4 6 6 6 5 4 3 3 3 3 2 2 2 1 nan 3 3 10 6 5 5 3 3 3 2 3 2 2 3 2 3 3 3 2 1 0 0 0 1 1 2 5 6 6 4 2 3 3 3 3 3 2 2 2 3 6 6 7 12 16 16 22 28 28 33 40 49 49 42
nan nan 0 0 0 nan nan nan nan nan nan nan nan nan 0 1 2 2 2 2 2 2 3 2 2 3 2 3 1 1 1 0 3 3 9 6 4 4 2 3 3 4 3 3 3 3 2 3 3 4 4 2 0 0 nan 0 0 4 6 8 8 8 6 7 7 7 5 4 3 3 2 2 3 3 4 12 17 17 22 28 28 32 37 42 42 44
0 0 0 0 0 0 nan nan nan nan nan nan 0 0 0 0 1 1 1 3 3 3 2 3 3 3 7 2 2 2 3 1 3 3 7 7 3 3 3 4 4 8 3 4 4 4 3 2 2 3 2 0 nan nan 0 1 1 1 1 3 3 4 5 9 9 11 8 7 4 4 4 4 5 5 7 13 15 15 20 27 27 28 32 35 35 40
1 1 1 0 0 0 nan nan nan nan nan nan nan nan nan 0 1 1 1 2 2 3 1 0 0 1 8 10 8 8 8 7 7 7 12 9 5 5 3 6 6 8 8 6 6 5 4 5 5 2 1 0 2 2 2 1 1 1 1 1 1 2 2 6 6 9 9 9 9 9 9 7 7 7 8 9 7 7 8 9 9 19 25 27 27 34
1 1 0 0 0 0 nan nan nan nan nan nan 0 0 1 2 2 2 1 1 1 1 2 1 1 1 nan 1 11 11 12 8 8 8 11 9 5 5 6 5 5 7 7 7 7 6 6 4 4 5 3 1 1 1 0 0 0 0 1 0 0 1 1 3 3 6 7 7 9 9 7 6 6 6 6 6 8 8 8 8 8 12 15 14 14 22
1 1 0 0 0 0 0 0 0 0 0 1 3 3 3 3 1 1 1 1 1 1 2 3 3 1 2 5 7 7 10 9 12 12 8 8 9 9 8 6 6 4 6 5 5 5 6 5 5 8 8 3 1 1 1 0 0 1 3 1 1 0 1 2 2 2 3 3 4 4 3 3 5 5 6 7 8 8 7 7 7 9 13 11 11 10
2 1 0 0 0 0 0 0 0 0 1 2 3 3 3 2 1 1 1 1 1 1 2 2 2 2 1 1 2 2 3 5 6 6 3 0 4 4 5 6 6 4 5 5 5 5 7 4 4 6 6 3 3 3 2 1 1 4 6 2 2 nan 0 2 2 1 2 2 3 3 4 5 7 7 6 6 4 4 5 7 7 10 11 9 9 9
3 2 0 nan nan nan 0 1 3 3 3 3 3 3 2 2 1 1 1 2 2 1 1 0 0 1 0 nan 0 0 1 2 3 3 1 nan nan nan 1 2 2 4 2 5 5 6 8 7 7 5 5 4 2 2 1 1 1 3 4 2 2 2 3 2 2 1 1 2 3 3 7 6 5 5 6 5 4 4 5 7 7 15 17 14 14 12
1 1 0 0 0 0 2 3 3 3 2 2 1 1 1 1 2 2 3 2 2 2 1 1 1 1 0 0 nan nan 1 2 4 4 3 0 nan nan 0 1 1 1 nan 3 3 6 8 9 9 5 4 3 2 2 2 3 3 3 1 3 3 3 0 0 0 0 1 3 3 3 4 3 3 3 5 4 3 3 6 10 10 19 22 14 14 14
1 0 1 1 1 1 2 2 2 2 2 1 1 1 1 1 3 3 3 1 1 2 2 1 1 2 1 0 0 0 0 1 3 3 4 6 5 5 3 4 4 3 2 3 3 2 4 6 6 4 3 2 1 1 3 1 1 1 0 2 2 2 0 0 0 1 2 3 2 2 2 3 1 1 5 6 3 3 5 6 6 7 15 12 12 13
1 1 1 2 2 3 2 1 1 1 1 1 0 0 1 1 3 3 1 1 1 4 1 2 2 2 1 0 0 0 nan 0 1 1 1 6 11 11 9 7 7 5 4 3 3 1 1 2 2 2 2 1 1 1 1 1 1 1 1 3 3 4 2 3 3 4 0 2 1 1 1 3 2 2 5 4 4 4 4 6 6 6 9 10 10 14
1 2 3 3 3 1 1 1 1 1 0 0 0 0 1 1 3 3 2 2 2 3 3 2 2 0 1 1 0 0 0 nan 0 0 0 1 3 3 6 6 6 3 1 2 2 2 nan 0 0 1 1 2 1 1 1 0 0 1 1 2 2 2 1 2 2 2 1 1 2 2 2 4 4 4 5 5 5 5 4 7 7 8 10 8 8 9
3 2 2 1 1 1 0 1 1 1 1 1 1 1 1 1 2 2 2 2 2 2 3 3 3 1 1 1 1 1 1 0 0 0 0 0 2 2 2 4 4 7 4 1 1 0 1 0 0 0 0 1 0 0 1 0 0 1 0 1 1 1 1 1 1 1 1 2 2 2 3 7 5 5 5 3 4 4 4 7 7 8 10 11 11 10
1 1 1 1 1 1 1 1 0 0 nan 1 1 1 1 1 1 1 2 2 2 4 3 3 3 1 1 1 0 0 1 1 1 1 0 1 1 1 1 1 1 3 5 4 4 5 2 1 1 0 nan 0 0 0 0 0 0 0 1 1 1 1 1 1 1 0 1 1 2 2 3 3 5 5 4 3 4 4 3 4 4 6 11 14 14 13
1 1 1 1 1 1 1 1 1 1 1 1 1 1 2 3 11 11 2 2 2 2 0 1 1 1 1 0 1 1 3 4 3 3 1 1 1 1 1 2 2 2 3 5 5 6 5 6 6 2 nan nan 0 0 0 0 0 0 1 1 1 1 1 1 1 1 1 2 3 3 3 5 2 2 3 4 5 5 3 3 3 4 6 9 9 13
1 0 1 1 1 1 1 1 1 1 1 1 1 1 2 1 1 1 1 1 1 0 0 nan nan 0 1 1 2 2 2 2 2 2 1 1 2 2 3 2 2 2 1 3 3 4 4 5 5 7 10 3 0 0 0 0 0 0 1 1 1 1 1 1 1 1 1 1 4 4 8 6 4 4 1 3 4 4 2 3 3 3 4 5 5 11
2 1 0 1 1 1 0 0 0 0 1 1 1 1 1 1 1 1 0 0 0 nan nan nan nan nan 0 1 2 2 3 1 2 2 2 1 0 0 0 1 1 nan 0 1 1 1 0 0 0 1 6 15 5 5 1 1 1 1 1 1 1 1 1 1 1 3 4 3 2 2 2 4 4 4 1 2 4 4 2 3 3 3 3 4 4 9
CIN
nan nan nan nan nan nan nan nan nan nan nan nan nan nan nan nan nan nan nan nan nan nan nan nan nan nan nan nan nan nan nan nan nan nan nan nan nan nan nan nan nan -0 -0 -0 -0 -0 -0 -0 -0 -0 -0 -0 -0 -0 -0 -0 -0 -0 -0 -0 -0 -0 -0 -0 -0 -0 -0 -0 -0 -0 -0 -0 -0 -0 -0 -0 -0 -0 -0 -0 -0 -0 -0 -0 -0 -0
nan nan nan nan nan nan nan nan nan nan nan nan nan nan nan nan nan nan nan nan nan nan nan nan nan nan nan nan nan nan nan nan nan nan nan nan nan nan nan nan nan nan nan -0 -0 -0 -0 -0 -0 -0 -0 -0 -0 -0 -0 -0 -0 -0 -0 -0 -0 -0 -0 -0 -0 -0 -0 -0 -0 -0 -0 -0 -0 -0 -0 -0 -0 -0 -0 -0 -0 -0 -0 -0 -0 -0
nan nan nan nan nan nan nan nan nan nan nan nan nan nan nan nan nan nan nan nan nan nan nan nan nan nan nan nan nan nan nan nan nan nan nan nan nan nan nan nan nan nan nan nan nan -0 -0 -0 -0 -0 -0 -0 -0 -0 -0 -0 -0 -0 -0 -0 -0 -0 -0 -0 -0 -0 -0 -0 -0 -0 -0 -0 -0 -0 -0 -0 -0 -0 -0 -0 -0 -0 -0 -0 -0 -0
nan nan nan nan nan nan nan nan nan nan nan nan nan nan nan nan nan nan nan nan nan nan nan nan nan nan nan nan nan nan nan nan nan nan nan nan nan nan nan nan nan nan nan nan nan nan nan -0 -0 -0 -0 -0 -0 -0 -0 -0 -0 -0 -0 -0 -0 -0 -0 -0 -0 -0 -0 -0 -0 -0 -0 -0 -0 -0 -0 -0 -0 -0 -0 -0 -0 -0 -0 -0 -0 -0
nan nan nan nan nan nan nan nan nan nan nan nan nan nan nan nan nan nan nan nan nan nan nan nan nan nan nan nan nan nan nan nan nan nan nan nan nan nan nan nan nan nan nan nan nan nan nan nan nan nan -0 -0 -0 -0 -0 -0 -0 -0 -0 -0 -0 -0 -0 -0 -0 -0 -0 -0 -0 -0 -0 -0 -0 -0 -0 -0 -0 -0 -0 -0 -0 -0 -0 -0 -0 -0
nan nan nan nan nan nan nan nan nan nan nan nan nan nan nan nan nan nan nan nan nan nan nan nan nan nan nan nan nan nan nan nan nan nan nan nan nan nan nan nan nan nan nan nan nan nan -0 -0 -0 -0 -0 -0 -0 -0 -0 -0 -0 -0 -0 -1 -1 -5 -2 -1 -1 -0 -0 -0 -0 -0 -1 -1 -1 -1 -0 -0 -0 -0 -0 -0 -0 -0 -0 -0 -0 -0
nan nan nan nan nan nan nan nan nan nan nan nan nan nan nan nan nan nan nan nan nan nan nan nan nan nan nan nan nan nan nan nan nan nan nan nan nan nan nan nan nan nan -0 -0 -0 -0 -0 -0 -0 -0 -0 -0 -0 -0 -0 -0 -0 -0 -0 -1 -1 -1 -0 -0 -0 -0 -0 -0 -2 -2 -4 nan nan nan nan nan -0 -0 -0 -0 -0 -0 -0 -0 -0 -0
nan nan nan nan nan nan nan nan -0 -0 -0 nan nan nan nan nan nan nan nan -0 -0 nan nan nan nan nan nan nan nan nan nan nan nan nan nan nan nan nan nan nan nan nan nan nan nan -0 -0 -0 -0 -0 -0 -0 -0 -0 -0 -0 -0 nan nan nan nan nan nan -0 -0 -0 -0 -0 nan nan nan nan nan nan nan nan nan nan -0 -0 -0 -0 -0 -0 -0 -0
-0 nan nan -0 -0 nan nan nan -0 -0 -0 -0 nan nan nan nan nan nan nan nan nan -0 nan nan nan nan nan nan nan nan nan nan nan nan nan nan nan nan nan nan nan nan nan nan nan nan nan nan nan nan nan nan nan nan nan nan nan nan nan nan nan nan nan nan nan -0 -0 -0 -0 -0 nan nan nan nan nan nan nan nan -0 -0 -0 -0 -0 -0 -0 -0
-0 -0 nan -0 -0 -0 nan nan -0 -0 -0 nan nan nan nan nan nan nan nan nan nan nan nan nan nan nan nan nan nan nan nan nan nan nan nan nan nan nan nan nan nan nan nan nan nan nan nan nan nan nan nan nan nan nan nan nan nan nan nan nan nan nan nan nan nan nan nan nan -0 -0 -0 -0 -0 -0 -0 -0 -0 -0 -0 -0 -0 -0 -0 -0 -0 -0
-0 -0 -0 -0 -0 -0 -0 -0 -0 -0 -1 nan nan nan nan nan nan nan nan nan nan nan nan nan nan nan nan nan nan nan nan nan nan nan nan nan nan nan nan nan nan nan nan nan nan nan nan nan nan nan nan nan nan nan nan nan nan nan nan nan nan nan nan nan nan nan nan -0 -0 -0 -0 -0 -0 -0 -0 -0 -0 -0 -0 -0 -0 -0 -0 -0 -0 -0
-0 -0 -0 -0 -0 -0 -0 -0 -2 -2 -0 -0 nan nan nan -0 -0 -0 -0 nan nan nan nan nan nan nan nan nan nan nan nan nan nan nan nan nan nan nan nan nan nan nan nan nan nan nan nan nan nan nan nan nan nan nan nan nan nan nan nan nan nan nan nan nan nan -0 -0 -0 -0 -0 -0 -0 -0 -0 -0 -0 -0 -0 -0 -0 -0 -0 -0 -0 -0 -0
-0 -0 -0 -0 -0 -0 -0 -0 -0 -0 -0 -0 nan nan -0 -0 -0 -0 -0 -0 -0 -0 -0 nan nan -0 -0 -0 nan nan nan nan nan nan nan nan nan nan nan nan nan nan nan nan nan nan nan nan nan nan nan nan nan nan nan nan nan nan nan nan nan nan -0 -0 -0 -0 -0 -0 -0 -0 -0 -0 -0 -0 -0 -0 -0 -0 -0 -0 -0 -0 -0 -0 -0 -0
-0 -0 -0 -0 -0 -0 -0 -0 -0 -0 -0 -0 -0 -0 -0 -0 -0 -0 -0 -0 -0 -0 -0 -0 -0 -0 -0 -0 -0 -0 nan nan nan nan nan nan nan nan nan nan nan nan nan nan nan nan nan nan nan nan nan nan nan nan nan nan nan nan nan -0 -0 -0 -0 -0 -0 -0 -0 -0 -0 -0 -0 -0 -0 -0 -0 -0 -0 -0 -0 -0 -0 -0 -0 -0 -0 -0
-0 -0 -0 -0 -0 -0 -0 -0 -0 -0 -0 -0 -0 -0 -0 -0 -0 -0 -0 -0 -0 -0 -0 -0 -0 -0 -0 -0 -17 -17 nan nan nan nan nan -0 -0 -0 nan nan nan nan nan nan nan nan nan nan nan nan nan nan nan nan nan nan nan nan -0 -0 -0 -0 -0 -0 -0 -0 -0 -0 -0 -0 -0 -0 -0 -0 -0 -0 -0 -0 -0 -0 -0 -0 -0 -0 -0 -0
-0 -0 -0 -0 -0 -0 -0 -0 -0 -0 -0 -0 -0 -0 -0 -0 -0 -0 -0 -0 -0 -0 -0 -0 -0 -0 -0 -5 nan nan nan nan -0 -0 -0 -0 -0 -0 -0 nan nan nan nan nan nan nan nan nan nan nan nan nan nan nan nan nan nan -0 -0 -0 -0 -0 -0 -0 -0 -0 -0 -0 -0 -0 -0 -0 -0 -0 -0 -0 -0 -0 -0 -0 -0 -0 -0 -0 -0 -0
-0 -0 -0 -0 -0 -0 -0 -0 -0 -0 -0 -0 -0 -0 -0 -0 -0 -0 -0 -0 -0 -0 -0 -0 -0 -0 -0 -0 -24 -24 nan nan -0 -0 -0 -0 -0 -0 -0 -0 -0 -0 nan nan nan nan nan nan nan nan nan nan nan nan nan -0 -0 -0 -0 -0 -0 -0 -0 -0 -0 -0 -0 -0 -0 -0 -0 -0 -0 -0 -0 -0 -0 -0 -0 -0 -0 -0 -0 -0 -0 -0
-0 -0 -0 -0 -0 -0 -0 -0 -0 -0 -0 -0 -0 -0 -0 -0 -0 -0 -0 -0 -0 -0 -0 -0 -0 -0 -0 -0 -0 -0 nan -4 -0 -0 -0 -0 -0 -0 -0 -0 -0 -0 -0 nan nan nan nan nan nan nan nan nan nan nan -0 -0 -0 -0 -0 -0 -0 -0 -0 -0 -0 -0 -0 -0 -0 -0 -0 -0 -0 -0 -0 -0 -0 -0 -0 -0 -0 -0 -0 -0 -0 -0
-0 -0 -0 -0 -0 -0 -0 -0 -0 -0 -0 -0 -0 -0 -0 -0 -0 -0 -0 -0 -0 -0 -0 -0 -0 -0 -0 -0 -0 -0 nan -4 -0 -0 -0 -0 -0 -0 -0 -0 -0 -0 -0 -0 -0 -0 -0 -0 -0 -0 -0 -0 -0 -0 -0 -0 -0 -0 -0 -0 -0 -0 -0 -0 -0 -0 -0 -0 -0 -0 -0 -0 -0 -0 -0 -0 -0 -0 -0 -0 -0 -0 -0 -0 -0 -0
-0 -0 -0 -0 -0 -0 -0 -0 -0 -0 -0 -0 -0 -0 -0 -0 -0 -0 -0 -0 -0 -0 -0 -0 -0 -0 -0 -0 -0 -0 -11 -3 -0 -0 -0 -0 -0 -0 -0 -0 -0 -0 -0 -0 -0 -0 -0 -0 -0 -0 -0 -0 -0 -0 -0 -0 -0 -0 -0 -0 -0 -0 -0 -0 -0 -0 -0 -0 -0 -0 -0 -0 -0 -0 -0 -0 -0 -0 -0 -0 -0 -0 -0 -0 -0 -0
-0 -0 -0 -0 -0 -0 -0 -0 -0 -0 -0 -0 -0 -0 -0 -0 -0 -0 -0 -0 -0 -0 -0 -0 -0 -0 -0 -0 -0 -0 -4 -0 -0 -0 -0 -0 -0 -0 -0 -0 -0 -0 -0 -0 -0 -0 -0 -0 -0 -0 -0 -0 -0 -0 -0 -0 -0 -0 -0 -0 -0 -0 -0 -0 -0 -0 -0 -0 -0 -0 -0 -0 -0 -0 -0 -0 -0 -0 -0 -0 -0 -0 -0 -0 -0 -0
-0 -0 -0 -0 -0 -0 -0 -0 -0 -0 -0 -0 -0 -0 -0 -0 -0 -0 -0 -0 -0 -0 -0 -0 -0 -0 -0 -0 -0 -0 -2 -0 -0 -0 -0 -0 -0 -0 -2 -0 -0 -0 -0 -0 -0 -0 -0 -0 -0 -0 -0 -0 -0 -0 -0 -0 -0 -0 -0 -0 -0 -0 -0 -0 -0 -0 -0 -0 -0 -0 -0 -0 -0 -0 -0 -0 -0 -0 -0 -0 -0 -0 -0 -0 -0 -0
-0 -0 -0 -0 -0 -0 -0 -0 -0 -0 -0 -0 -0 -0 -0 -0 -0 -0 -0 -0 -0 -0 -0 -0 -0 -0 -0 -0 -0 -0 -0 -0 -0 -0 -0 -0 -0 -0 -0 -0 -0 -0 -0 -0 -0 -0 -0 -0 -0 -0 -0 -0 -0 -0 -0 -0 -0 -0 -0 -0 -0 -0 -0 -0 -0 -0 -0 -0 -0 -0 -0 -0 -0 -0 -0 -0 -0 -0 -0 -0 -0 -0 -0 -0 -0 -0
-0 -0 -0 -0 -0 -0 -0 -0 -0 -0 -0 -0 -0 -0 -1 -0 -0 -0 -0 -0 -0 -0 -0 -0 -0 -0 -0 -0 -0 -0 -0 -0 -0 -0 -0 -0 -0 -0 -0 -0 -0 -0 -0 -0 -0 -0 -0 -0 -0 -0 -0 -0 -0 -0 -0 -0 -0 -0 -0 -0 -0 -0 -0 -0 -0 -0 -0 -0 -0 -0 -0 -0 -0 -0 -0 -0 -0 -0 -0 -0 -0 -0 -0 -0 -0 -0
-0 -0 -0 -0 -0 -0 -0 -0 -0 -0 -0 -0 -0 -0 -2 -0 -0 -0 -0 -0 -0 -0 -0 -0 -0 -0 -0 -0 -0 -0 -0 -0 -0 -0 -0 -0 -0 -0 -0 -0 -0 -0 -0 -0 -0 nan nan nan nan nan -0 -0 -0 -0 -0 -0 -0 -0 -0 -0 -0 -0 -0 -0 -0 -0 -0 -0 -0 -0 -0 -0 -0 -0 -0 -0 -0 -0 -0 -0 -0 -0 -0 -0 -0 -0
-0 -0 -0 -0 -0 -0 -0 -0 -0 -0 -0 -0 -0 -0 -0 -0 -0 -0 -0 -0 -0 -0 -0 -0 -0 -0 nan nan nan nan nan -0 -0 -0 -0 -0 -0 -0 -0 -0 -0 -0 -0 -0 -0 -0 -0 -0 -0 -0 -0 -0 -0 -0 -0 -0 -0 -0 -0 -0 -0 -0 -0 -0 -0 -0 -0 -0 -0 -0 -0 -0 -0 -0 -0 -0 -0 -0 -0 -0 -0 -0 -0 -0 -0 -0
-0 -0 -0 -0 -0 -0 -0 -0 -0 -0 -0 -0 -0 -0 -0 -0 -0 -0 -0 -0 -0 -0 -0 -0 -0 -0 -0 -0 -0 -0 nan -0 -0 -0 -0 -0 -0 -0 -0 -0 -0 -0 -0 -0 -0 -0 -0 -0 -0 -0 -0 -0 -0 -0 -0 -0 -0 -0 -0 -0 -0 -0 -0 -0 -0 -0 -0 -0 -0 -0 -0 -0 -0 -0 -0 -0 -0 -0 -0 -0 -0 -0 -0 -0 -0 -0
-0 -0 -0 -0 -0 -0 -0 -0 -0 -0 -0 -0 -0 -0 -0 -0 -0 -0 -0 -0 -0 -0 -0 -0 -0 -0 -0 -0 -0 -0 -0 -0 -0 -0 -0 -0 -0 -0 -0 -0 -0 -0 -0 -0 -0 -0 -0 -0 -0 -0 -0 -0 -0 -0 -0 -0 -0 -0 -0 -0 -0 -0 -0 -0 -0 -0 -0 -0 -0 -0 -0 -0 -0 -0 -0 -0 -0 -0 -0 -0 -0 -0 -0 -0 -0 -0
nan nan -0 -0 -0 -0 -0 -0 -0 -0 -0 -0 -0 -0 -0 -0 -0 -0 -0 -0 -0 -0 -0 -0 -0 -0 -0 -0 -0 -0 -0 -0 -0 -0 -0 -0 -0 -0 -0 -0 -0 -0 -0 -0 -0 -0 -0 -0 -0 -0 -0 -0 -0 -0 -0 -0 -0 -0 -0 -0 -0 -0 -0 -0 -0 -0 -0 -0 -0 -0 -0 -0 -0 -0 -0 -0 -0 -0 -0 -0 -0 -0 -0 -0 -0 -0
nan nan nan -0 -0 -0 -0 nan -0 -0 -0 -0 -0 -0 -0 -0 -0 -0 -0 -0 -0 -0 -0 -0 -0 -0 -0 -0 -0 -0 -0 nan -0 -0 -0 -0 -0 -0 -0 -0 -0 -0 -0 -0 -0 -0 -0 -0 -0 -0 -0 -0 -0 -0 -0 -0 -0 -0 -0 -0 -0 -0 -0 -0 -0 -0 -0 -0 -0 -0 -0 -0 -0 -0 -0 -0 -0 -0 -0 -0 -0 -0 -0 -0 -0 -0
nan nan nan nan nan nan nan nan -0 -0 -0 -0 -0 -0 -0 -0 -0 -0 -0 -0 -0 -0 -0 -0 -0 -0 -0 -0 -0 -0 -0 nan -0 -0 -0 -0 -0 -0 -0 -0 -0 -0 -0 -0 -0 -0 -0 nan nan -0 -0 -0 -0 -0 -0 -0 -0 -0 -0 -0 -0 -0 -0 -0 -0 -0 -0 -0 -0 -0 -0 -0 -0 -0 -0 -0 -0 -0 -0 -0 -0 -0 -0 -0 -0 -0
nan nan nan nan nan nan nan nan nan nan nan nan -0 -0 -0 -0 -0 -0 -0 -0 -0 -0 -0 -0 -0 -0 -0 -0 -0 -0 -0 -0 -0 -0 -0 -0 -0 -0 -0 -0 -0 -0 -0 -0 -0 -0 -0 -0 -0 -0 -0 -0 -0 -0 -0 -0 -0 -0 -0 -0 -0 -0 -0 -0 -0 -0 -0 -0 -0 -0 -0 -0 -0 -0 -0 -0 -0 -0 -0 -0 -0 -0 -0 -0 -0 -0
nan nan nan nan nan nan nan nan nan nan nan -0 -0 -0 -0 -0 -0 -0 -0 -0 -0 -0 -0 -0 -0 -0 -0 -0 -0 -0 -0 -0 -0 -0 -0 -0 -0 -0 -0 -0 -0 -0 -0 -0 -0 -0 -0 -0 -0 -0 -0 -0 -0 -0 -0 -0 -0 -0 -0 -0 -0 -0 -0 -0 -0 -0 -0 -0 -0 -0 -0 -0 -0 -0 -0 -0 -0 -0 -0 -0 -0 -0 -0 -0 -0 -0
nan nan nan nan nan nan nan nan nan nan nan -0 -0 -0 -0 -0 -0 -0 -0 -0 -0 -0 -0 -0 -0 -0 -0 -0 -0 -0 -0 nan -0 -0 -0 -0 -0 -0 -0 -0 -0 -0 -0 -0 -0 -0 -0 -0 -0 -0 -0 -0 -0 -0 -0 -0 -0 -0 -0 -0 -0 -0 -0 -0 -0 -0 -0 -0 -0 -0 -0 -0 -0 -0 -0 -0 -0 -0 -0 -0 -0 -0 -0 -0 -0 -0
nan nan nan nan nan nan nan nan nan nan -0 nan nan nan -0 -0 -0 -0 -0 -0 -0 -0 -0 -0 -0 -0 -0 -0 -0 -0 -0 nan -0 -0 -0 -0 -0 -0 -0 -0 -0 -0 -0 -0 -0 -0 -0 -0 -0 -0 -0 -0 -0 -0 -0 -0 -0 -0 -0 -0 -0 -0 -0 -0 -0 -0 -0 -0 -0 -0 -0 -0 -0 -0 -0 -0 -0 -0 -0 -0 -0 -0 -0 -0 -0 -0
nan nan -0 -0 -0 nan nan nan nan nan nan nan nan nan -0 -0 -0 -0 -0 -0 -0 -0 -0 -0 -0 -0 -0 -0 -0 -0 -0 -0 -0 -0 -0 -0 -0 -0 -0 -0 -0 -0 -0 -0 -0 -0 -0 -0 -0 -0 -0 -0 -0 -0 nan -0 -0 -0 -0 -0 -0 -0 -0 -0 -0 -0 -0 -0 -0 -0 -0 -0 -0 -0 -0 -0 -0 -0 -0 -0 -0 -0 -0 -0 -0 -0
-0 -0 -0 -0 -0 -0 nan nan nan nan nan nan -0 -0 -0 -0 -0 -0 -0 -0 -0 -0 -0 -0 -0 -0 -0 -0 -0 -0 -0 -0 -0 -0 -0 -0 -0 -0 -0 -0 -0 -0 -0 -0 -0 -0 -0 -0 -0 -0 -0 -0 nan nan -0 -0 -0 -0 -0 -0 -0 -0 -0 -0 -0 -0 -0 -0 -0 -0 -0 -0 -0 -0 -0 -0 -0 -0 -0 -0 -0 -0 -0 -0 -0 -0
-0 -0 -0 -0 -0 -0 nan nan nan nan nan nan nan nan nan -0 -0 -0 -0 -0 -0 -0 -0 -0 -0 -0 -0 -0 -0 -0 -0 -0 -0 -0 -0 -0 -0 -0 -0 -0 -0 -0 -0 -0 -0 -0 -0 -0 -0 -0 -0 -0 -0 -0 -0 -0 -0 -0 -0 -0 -0 -0 -0 -0 -0 -0 -0 -0 -0 -0 -0 -0 -0 -0 -0 -0 -0 -0 -0 -0 -0 -0 -0 -0 -0 -0
-0 -0 -0 -0 -0 -0 nan nan nan nan nan nan -0 -0 -0 -0 -0 -0 -0 -0 -0 -0 -0 -0 -0 -0 nan -1 -0 -0 -0 -0 -0 -0 -0 -0 -0 -0 -0 -0 -0 -0 -0 -0 -0 -0 -0 -0 -0 -0 -0 -0 -0 -0 -0 -0 -0 -0 -0 -0 -0 -0 -0 -0 -0 -0 -0 -0 -0 -0 -0 -0 -0 -0 -0 -0 -0 -0 -0 -0 -0 -0 -0 -0 -0 -0
-0 -0 -0 -0 -0 -0 -0 -0 -0 -0 -0 -0 -0 -0 -0 -0 -0 -0 -0 -0 -0 -0 -0 -0 -0 -0 -0 -0 -0 -0 -0 -2 -0 -0 -1 -1 -0 -0 -0 -0 -0 -0 -0 -0 -0 -0 -0 -0 -0 -0 -0 -0 -0 -0 -0 -0 -0 -0 -0 -0 -0 -0 -0 -0 -0 -0 -0 -0 -0 -0 -0 -0 -0 -0 -0 -0 -0 -0 -0 -0 -0 -0 -0 -0 -0 -0
-0 -0 -0 -0 -0 -0 -0 -0 -0 -0 -0 -0 -0 -0 -0 -0 -0 -0 -0 -0 -0 -0 -0 -0 -0 -0 -0 -0 -0 -0 -0 -1 -0 -0 -5 -10 -2 -2 -0 -0 -0 -0 -0 -0 -0 -0 -0 -0 -0 -0 -0 -0 -0 -0 -0 -0 -0 -0 -0 -0 -0 nan -0 -0 -0 -0 -0 -0 -0 -0 -0 -0 -0 -0 -0 -0 -0 -0 -0 -0 -0 -0 -0 -0 -0 -0
-0 -0 -0 nan nan nan -0 -0 -0 -0 -0 -0 -0 -0 -0 -0 -0 -0 -0 -0 -0 -0 -0 -0 -0 -0 -0 nan -0 -0 -0 -0 -3 -3 -11 nan nan nan -6 -0 -0 -0 -0 -0 -0 -0 -0 -0 -0 -0 -0 -0 -0 -0 -0 -0 -0 -0 -0 -0 -0 -0 -0 -0 -0 -0 -0 -0 -0 -0 -0 -0 -0 -0 -0 -0 -0 -0 -0 -0 -0 -0 -0 -0 -0 -0
-0 -0 -0 -0 -0 -0 -0 -0 -0 -0 -0 -0 -0 -0 -0 -0 -0 -0 -0 -0 -0 -0 -0 -0 -0 -0 -0 -0 nan nan -0 -6 -1 -1 -3 -18 nan nan -7 -2 -2 -1 nan -0 -0 -0 -0 -0 -0 -0 -0 -0 -0 -0 -0 -0 -0 -0 -0 -0 -0 -0 -0 -0 -0 -0 -0 -0 -0 -0 -0 -0 -0 -0 -0 -0 -0 -0 -0 -0 -0 -0 -0 -0 -0 -0
-0 -0 -0 -0 -0 -0 -0 -0 -0 -0 -0 -0 -0 -0 -0 -0 -0 -0 -0 -0 -0 -0 -0 -0 -0 -0 -0 -0 -0 -0 -0 -0 -3 -3 -0 -0 -5 -5 -3 -1 -1 -0 -0 -0 -0 -0 -0 -0 -0 -0 -0 -0 -0 -0 -0 -0 -0 -0 -0 -0 -0 -0 -0 -0 -0 -0 -0 -0 -0 -0 -0 -0 -1 -1 -0 -0 -2 -2 -3 -0 -0 -0 -0 -0 -0 -0
-0 -0 -0 -0 -0 -0 -0 -0 -0 -0 -0 -0 -0 -0 -0 -0 -0 -0 -0 -0 -0 -0 -0 -0 -0 -0 -0 -0 -0 -0 nan -0 -0 -0 -2 -0 -0 -0 -0 -0 -0 -0 -0 -0 -0 -0 -0 -0 -0 -0 -0 -0 -0 -0 -0 -0 -0 -0 -0 -0 -0 -0 -0 -0 -0 -0 -0 -0 -0 -0 -0 -1 -1 -1 -0 -0 -0 -0 -2 -1 -1 -3 -0 -0 -0 -0
-0 -0 -0 -0 -0 -0 -0 -0 -0 -0 -0 -0 -0 -0 -0 -0 -0 -0 -0 -0 -0 -0 -0 -0 -0 -0 -0 -0 -0 -0 -0 nan -0 -0 -0 -0 -0 -0 -0 -0 -0 -0 -0 -0 -0 -0 nan -0 -0 -0 -0 -0 -0 -0 -0 -0 -0 -0 -0 -0 -0 -0 -0 -0 -0 -0 -0 -0 -0 -0 -0 -0 -0 -0 -0 -0 -0 -0 -1 -0 -0 -0 -1 -1 -1 -2
-0 -0 -0 -0 -0 -0 -0 -0 -0 -0 -0 -0 -0 -0 -0 -0 -0 -0 -0 -0 -0 -0 -0 -0 -0 -0 -0 -0 -0 -0 -0 -0 -0 -0 -0 -0 -0 -0 -0 -0 -0 -0 -0 -0 -0 -0 -0 -0 -0 -0 -0 -0 -0 -0 -0 -0 -0 -0 -0 -0 -0 -0 -0 -0 -0 -0 -0 -0 -0 -0 -0 -0 -0 -0 -0 -0 -0 -0 -0 -0 -0 -0 -0 -0 -0 -2
-0 -0 -0 -0 -0 -0 -0 -0 -0 -0 nan -0 -0 -0 -0 -0 -0 -0 -0 -0 -0 -0 -0 -0 -0 -0 -0 -0 -0 -0 -0 -0 -0 -0 -0 -0 -0 -0 -0 -0 -0 -0 -0 -0 -0 -0 -0 -2 -2 -3 nan -0 -0 -0 -0 -0 -0 -0 -0 -0 -0 -0 -0 -0 -0 -0 -0 -0 -4 -4 -4 -1 -0 -0 -0 -0 -0 -0 -0 -0 -0 -1 -0 -0 -0 -0
-0 -0 -0 -0 -0 -0 -0 -0 -0 -0 -0 -0 -0 -0 -0 -0 -0 -0 -0 -0 -0 -0 -0 -0 -0 -0 -0 -0 -0 -0 -0 -0 -0 -0 -0 -0 -0 -0 -0 -0 -0 -0 -0 -0 -0 -0 -0 -0 -0 -0 nan nan -0 -0 -0 -0 -0 -0 -0 -0 -0 -0 -0 -0 -0 -0 -0 -1 -8 -8 -6 -0 -0 -0 -0 -0 -0 -0 -0 -0 -0 -0 -0 -0 -0 -0
-0 -0 -0 -0 -0 -0 -0 -0 -0 -0 -0 -0 -0 -0 -0 -0 -0 -0 -0 -0 -0 -0 -0 nan nan -0 -0 -0 -0 -0 -0 -0 -0 -0 -0 -0 -0 -0 -0 -0 -0 -0 -0 -0 -0 -0 -0 -0 -0 -0 -0 -0 -0 -0 -0 -0 -0 -0 -0 -0 -0 -0 -0 -0 -0 -0 -0 -1 -6 -6 -3 -0 -0 -0 -1 -0 -0 -0 -0 -0 -0 -0 -0 -2 -2 -0
-0 -0 -0 -0 -0 -0 -0 -0 -0 -0 -0 -0 -0 -0 -0 -0 -0 -0 -0 -0 -0 nan nan nan nan nan -0 -0 -0 -0 -0 -0 -0 -0 -0 -0 -0 -0 -0 -0 -0 nan -0 -0 -0 -0 -0 -0 -0 -0 -0 -0 -0 -0 -0 -0 -0 -0 -0 -0 -0 -0 -0 -0 -0 -0 -0 -0 -5 -5 -9 -3 -0 -0 -1 -0 -0 -0 -0 -0 -0 -0 -0 -1 -1 -0
Wind_Speed
3 3 4 5 5 5 5 6 7 7 7 7 7 7 7 7 7 7 9 8 8 8 8 8 8 9 10 11 12 13 14 15 16 16 16 17 17 17 17 17 16 16 15 15 14 14 14 14 14 13 13 13 13 13 13 13 13 14 14 15 15 16 17 17 18 18 18 17 17 16 16 17 17 18 19 19 19 19 20 20 20 19 18 17 16 16
3 3 3 5 5 5 4 6 7 7 7 8 8 8 8 9 8 7 7 8 8 8 8 8 8 9 10 10 12 14 15 16 17 17 18 18 18 19 18 18 18 18 17 16 16 15 15 15 15 15 14 14 14 14 14 14 14 14 15 16 16 17 18 19 19 19 18 18 17 16 16 17 17 18 19 19 20 20 20 20 20 20 20 19 19 19
3 3 3 4 4 5 4 5 6 6 7 8 8 8 9 9 8 7 7 7 7 8 8 8 8 9 9 9 11 14 15 17 18 18 19 19 19 19 19 19 19 18 18 18 17 17 16 16 16 15 15 15 15 15 15 15 15 16 16 17 17 18 19 20 20 19 18 17 17 16 16 16 17 18 19 20 20 20 20 20 21 21 21 20 20 20
3 4 4 3 4 4 4 5 6 6 6 7 8 8 9 8 7 7 7 7 7 7 7 8 8 8 8 8 10 13 16 17 18 19 19 19 19 19 19 19 18 18 18 18 18 18 18 17 17 17 16 16 16 15 15 15 16 16 17 17 18 19 20 20 19 18 17 16 15 14 14 14 15 16 17 18 19 19 19 20 20 20 20 20 20 20
3 4 4 3 4 4 5 5 6 6 6 7 7 8 8 7 7 7 7 7 7 8 7 7 8 8 7 7 9 12 16 18 18 19 19 18 18 18 18 18 18 18 18 18 18 18 18 18 18 18 17 17 17 17 16 16 16 17 17 17 17 17 18 17 16 15 14 13 12 12 12 12 13 14 15 16 17 17 18 18 18 19 19 19 19 20
3 3 4 3 3 4 4 5 5 6 6 6 7 7 7 7 6 6 7 7 7 7 6 6 7 7 8 8 10 12 15 17 17 18 18 17 17 17 17 17 17 17 18 18 18 18 17 17 17 17 17 17 17 17 17 17 17 17 17 16 16 14 13 13 12 11 11 10 10 10 11 12 12 13 14 15 15 16 16 17 17 18 18 18 19 19
3 3 3 3 3 3 4 4 5 5 6 6 6 6 6 6 6 6 7 6 6 6 6 6 6 7 7 8 10 11 13 14 15 15 16 16 16 16 16 17 17 17 17 17 17 17 17 17 17 17 17 17 17 17 17 17 17 17 16 16 15 14 13 12 11 11 11 11 11 12 12 13 13 14 14 15 15 16 16 17 17 17 18 18 19 19
5 4 4 4 4 4 3 3 4 5 5 6 6 7 7 6 6 6 7 7 6 6 6 6 6 6 7 7 8 9 10 10 11 11 12 13 13 14 15 16 17 17 17 17 17 17 17 17 17 17 17 17 17 17 17 17 17 17 17 17 16 16 15 14 14 13 13 13 14 14 14 14 15 15 15 16 16 16 17 17 17 17 18 18 18 19
6 5 5 4 4 5 4 4 4 4 5 5 6 6 7 7 6 6 6 6 6 5 6 6 6 6 6 7 7 8 8 8 8 9 9 9 10 12 13 14 15 16 16 17 17 17 17 17 17 17 17 17 17 17 17 17 17 17 17 17 17 17 17 16 16 16 16 16 16 16 16 17 17 17 17 17 17 17 17 17 18 18 18 18 18 18
6 6 6 4 4 4 5 5 4 4 4 4 4 5 5 7 7 7 7 6 5 5 5 6 7 7 7 7 7 7 8 8 9 10 11 10 11 12 13 13 13 14 15 16 16 17 17 17 17 17 17 17 17 17 17 17 17 17 17 17 18 18 18 18 18 18 18 18 18 18 18 19 19 19 19 19 19 18 18 18 18 18 18 18 18 18
5 5 5 4 4 3 3 4 4 3 3 4 4 4 4 4 6 7 8 7 7 6 5 5 6 7 7 7 7 7 7 7 8 9 10 11 12 13 13 13 13 13 14 15 15 16 16 16 17 17 17 17 16 16 16 16 16 16 16 17 17 18 18 19 19 19 19 19 19 20 20 20 20 20 20 20 20 19 19 19 19 19 18 18 19 19
5 4 4 4 4 3 3 3 3 2 3 4 5 5 4 4 4 6 8 8 8 7 7 6 6 6 7 7 7 7 7 7 6 6 7 7 8 9 9 9 10 11 12 12 13 13 14 15 16 16 16 16 16 15 15 15 15 16 16 17 17 17 18 18 19 19 19 19 20 20 20 20 20 20 20 20 20 20 20 20 19 19 19 19 19 19
4 3 3 4 4 4 3 3 3 3 3 4 5 6 5 5 5 5 6 7 7 7 7 7 7 6 6 6 6 6 6 6 6 6 6 6 6 6 6 7 7 7 8 8 9 9 12 14 14 15 15 15 15 15 15 15 15 16 16 16 17 17 17 18 18 19 19 19 19 20 20 20 20 20 20 20 20 20 20 20 20 19 19 19 20 20
4 4 4 4 4 4 3 4 4 5 5 4 5 5 6 5 5 6 6 7 7 7 7 8 7 7 5 5 5 5 5 6 6 6 6 6 6 6 6 6 7 7 7 7 8 8 10 11 11 11 13 13 14 14 14 15 15 16 16 17 17 17 18 18 18 18 19 19 19 19 19 19 20 20 20 20 20 20 20 20 20 20 20 20 20 20
5 5 5 5 5 5 4 4 5 6 5 5 5 5 6 6 6 6 7 7 7 7 7 8 8 7 5 4 3 3 4 4 5 6 7 7 6 6 6 7 7 7 7 8 8 8 9 9 9 9 10 12 13 13 14 15 16 17 17 18 18 18 19 19 19 19 19 19 19 19 19 19 19 19 20 20 20 20 20 20 20 20 20 20 20 20
5 5 6 6 6 5 5 5 6 6 6 6 6 6 7 7 7 7 7 8 8 7 7 8 8 7 5 3 2 1 2 3 5 6 8 8 7 6 6 8 8 8 8 8 8 8 8 8 8 9 9 12 14 15 16 16 17 18 18 19 19 20 20 20 20 20 20 19 20 20 20 19 19 19 19 19 19 20 20 19 19 19 19 19 19 19
4 5 6 6 6 6 6 5 6 6 6 6 6 6 6 7 7 7 7 7 7 7 6 7 7 7 6 4 3 1 1 3 5 6 8 9 8 7 7 8 9 9 9 9 9 8 8 8 8 8 9 12 14 16 17 18 18 19 19 20 20 21 21 21 20 20 20 20 20 20 20 20 19 19 19 19 19 19 19 19 19 19 19 19 19 19
4 5 6 6 6 6 6 6 6 6 6 6 6 6 6 6 7 7 7 7 7 7 7 7 6 6 6 6 4 3 1 3 5 7 8 10 9 8 7 8 9 9 9 9 9 8 8 8 8 8 10 14 16 17 18 19 20 20 20 21 21 21 21 21 21 21 20 20 20 20 20 20 20 19 19 19 19 19 19 19 19 18 18 18 18 19
5 5 5 6 6 6 6 6 6 6 6 6 7 7 7 7 7 7 7 7 7 7 8 7 7 6 6 7 6 4 2 3 5 7 9 10 10 9 8 8 9 9 9 9 9 9 8 8 9 11 14 16 18 18 19 20 20 21 21 21 22 22 22 22 21 21 21 21 21 20 20 20 20 20 20 19 19 19 19 19 18 18 18 18 18 19
5 5 5 5 6 6 6 6 6 6 7 7 7 7 8 7 7 7 7 7 7 7 7 7 7 7 7 7 7 6 4 5 6 8 9 10 10 9 8 8 9 9 9 9 9 8 8 8 9 11 14 16 17 19 20 20 21 21 22 22 22 22 22 22 22 22 21 21 21 21 20 20 20 20 20 20 19 19 19 19 18 18 18 18 18 19
6 6 5 5 6 6 5 6 6 7 8 8 8 8 8 8 8 8 8 8 8 8 8 8 8 8 7 8 8 8 7 7 8 9 8 9 9 8 7 7 8 9 9 9 8 8 8 8 8 9 11 15 17 19 20 21 21 22 22 22 23 23 23 23 22 22 21 21 21 20 20 20 20 20 20 20 20 20 19 19 19 18 18 18 19 19
6 6 6 7 6 6 6 7 8 9 9 9 8 8 7 8 8 8 8 8 9 9 9 9 9 9 9 9 10 9 8 8 9 8 7 8 9 8 6 6 7 8 9 9 8 8 8 8 8 9 12 15 18 19 20 21 22 22 22 22 23 23 23 23 22 22 21 21 20 20 20 20 20 20 20 20 20 20 19 19 19 19 18 18 19 19
5 6 7 7 6 6 6 7 7 8 8 8 8 8 7 7 8 9 9 9 9 9 9 9 9 9 9 9 9 9 8 7 7 7 6 8 9 8 6 6 7 8 8 8 9 9 8 8 8 9 12 15 17 19 20 21 21 22 22 22 23 23 23 23 22 22 21 21 21 20 20 20 20 20 20 20 20 20 20 19 19 19 19 19 19 19
5 6 6 6 6 6 6 7 7 7 7 7 7 7 7 8 8 9 9 9 9 9 9 9 9 9 9 9 8 8 6 6 6 6 5 7 8 8 7 7 8 9 9 9 9 9 9 9 9 9 10 13 16 18 19 20 21 21 22 22 22 23 23 22 22 22 21 21 21 20 20 20 20 20 20 20 20 20 20 19 19 19 19 19 19 19
5 6 6 6 8 9 9 9 10 10 9 8 8 8 8 8 9 9 9 8 8 8 8 9 9 9 8 7 7 6 5 5 6 6 5 6 7 8 7 8 8 9 9 9 9 9 9 9 9 9 9 12 14 17 18 19 20 21 22 22 22 22 22 22 21 21 21 21 20 20 20 20 20 20 20 20 20 20 20 19 19 19 19 19 19 20
8 9 10 12 14 16 17 17 17 16 15 12 10 9 8 8 8 8 8 7 7 7 8 8 8 8 7 6 6 6 5 5 5 6 6 5 6 7 7 7 8 9 9 9 9 9 9 9 9 9 9 10 12 15 17 18 20 20 21 21 21 21 21 20 20 20 20 20 20 21 21 21 20 20 20 20 20 20 20 20 20 20 20 20 20 20
12 14 15 17 17 18 18 18 19 19 18 16 14 11 9 8 7 7 7 6 6 7 7 8 8 8 7 6 6 6 5 5 5 5 6 6 6 6 6 6 7 8 9 8 8 9 10 10 10 9 9 9 10 12 15 17 18 19 20 20 20 19 19 19 19 19 20 20 21 21 22 22 22 22 21 21 21 21 21 21 21 21 21 20 18 17
13 14 15 16 16 17 17 17 17 16 16 16 16 15 11 8 6 6 6 6 6 6 7 7 8 7 6 6 6 6 6 5 5 5 5 5 5 6 6 6 7 7 8 8 8 9 10 10 10 9 9 9 9 10 12 14 15 16 17 17 17 18 18 19 19 20 21 22 22 23 23 23 24 23 23 23 23 23 22 22 22 22 20 18 14 12
11 12 13 13 14 14 14 14 14 14 15 15 15 13 10 7 6 6 6 6 6 6 7 7 7 7 7 7 7 6 6 6 5 5 5 5 5 6 6 7 7 7 7 7 7 8 8 8 8 8 8 9 9 8 9 10 11 12 13 15 16 17 18 20 21 21 22 23 23 24 24 24 24 24 24 24 24 24 24 24 23 21 17 14 12 11
9 10 10 10 10 11 11 10 10 11 13 13 13 12 9 6 5 5 5 5 6 6 7 7 7 7 7 7 7 6 5 5 4 4 5 5 5 5 6 7 6 6 6 6 6 6 6 6 7 7 8 9 9 8 8 8 8 9 10 12 14 16 18 20 21 22 22 23 23 23 24 24 24 24 24 24 24 24 24 25 23 19 13 12 11 11
8 8 8 8 8 7 7 7 8 8 9 10 10 10 8 6 5 5 5 5 5 6 6 7 7 7 7 6 6 5 4 4 4 5 5 4 5 5 6 6 6 6 5 5 6 6 7 6 6 6 8 9 9 9 9 9 9 9 9 10 11 13 16 18 19 20 20 21 21 22 22 22 23 23 23 23 24 24 24 24 22 18 12 11 11 11
8 7 7 7 6 6 6 6 6 6 6 7 7 6 6 6 6 5 5 5 5 6 6 7 7 7 7 7 6 6 5 5 5 6 6 5 4 5 6 6 7 7 6 6 6 7 7 6 6 6 7 8 9 9 10 10 10 9 9 10 10 11 14 15 16 16 16 17 19 19 20 21 21 22 22 22 23 23 23 24 22 18 12 11 11 11
8 7 7 7 6 6 5 5 5 5 5 5 5 5 5 5 5 5 5 4 5 5 6 7 7 8 8 8 8 7 6 6 7 8 8 6 5 5 6 7 8 8 7 7 7 7 7 7 7 7 8 8 8 8 9 9 9 9 9 9 9 10 12 12 12 12 12 14 15 16 17 18 19 20 21 21 22 22 23 23 22 20 15 12 11 10
8 7 7 7 6 6 6 5 5 5 5 5 5 5 5 4 4 4 4 4 5 5 6 7 7 8 8 8 8 8 7 7 8 9 9 7 6 5 6 7 8 8 7 7 7 7 7 8 8 8 7 7 7 8 8 9 9 9 9 9 9 9 10 10 10 10 11 11 11 12 13 14 15 17 18 19 20 21 22 22 23 22 21 16 13 11
7 7 7 6 6 6 6 6 5 5 5 5 5 5 5 5 5 5 5 5 6 6 6 6 7 7 8 8 8 8 8 8 8 9 9 7 6 6 6 7 7 7 7 7 7 6 6 8 9 9 8 8 8 7 7 8 8 8 8 8 8 8 8 8 9 9 10 10 10 10 10 11 11 13 14 16 18 19 21 22 23 23 24 21 18 14
7 7 6 6 6 6 7 7 6 6 6 6 5 6 6 6 6 6 6 6 6 7 7 7 7 7 8 8 8 9 9 8 9 9 9 8 7 6 6 6 7 7 7 8 8 7 7 8 9 10 10 9 8 7 7 7 7 7 7 7 8 8 8 8 8 9 9 10 10 10 10 10 11 11 12 15 18 20 21 22 23 24 24 24 23 20
6 6 6 6 6 7 7 7 7 6 6 6 6 6 6 7 7 7 7 7 7 7 8 8 8 9 9 9 9 9 10 9 10 10 11 9 8 7 7 6 7 8 8 8 8 8 8 9 9 10 9 9 8 7 7 7 7 7 8 8 8 8 8 8 8 9 9 10 11 11 11 11 11 11 12 15 17 19 20 21 22 22 23 24 24 24
6 6 6 6 6 6 7 7 7 7 7 7 7 7 8 8 8 8 7 7 8 8 8 8 8 9 12 13 12 12 12 12 13 13 13 11 9 8 8 8 8 8 8 8 8 8 9 9 10 10 9 8 8 9 9 8 8 8 8 8 9 9 9 9 9 9 9 10 11 11 11 11 11 11 11 12 12 12 13 14 15 17 19 20 21 23
6 7 7 7 7 7 7 7 7 7 7 8 8 8 8 8 9 9 8 8 8 8 8 8 8 9 11 12 13 14 14 14 14 14 13 11 10 9 8 8 9 9 8 8 8 8 9 9 9 9 9 9 9 9 9 8 9 9 10 10 9 9 9 9 9 9 9 10 10 11 11 11 10 10 10 10 10 10 10 10 11 12 13 12 14 17
7 7 7 7 7 7 7 7 8 8 8 8 8 8 8 8 8 8 8 7 7 8 9 9 9 9 9 10 11 12 12 11 11 11 11 10 9 9 8 9 9 9 8 8 8 8 9 9 10 10 10 10 10 10 9 9 9 10 10 10 9 8 9 9 9 9 9 10 10 11 11 10 10 10 10 10 10 10 9 9 9 10 10 9 9 10
7 7 7 7 7 7 7 8 8 8 8 8 7 7 7 7 7 7 7 7 7 7 7 8 8 8 8 8 9 10 10 10 10 10 9 9 10 10 9 9 9 8 8 8 8 9 9 10 10 11 11 11 11 11 11 11 11 12 12 11 10 10 10 10 10 10 10 10 11 11 11 11 11 11 11 11 10 10 9 9 9 9 9 9 9 8
8 7 7 7 7 7 7 8 8 8 8 8 7 7 7 7 7 7 7 8 7 7 7 7 8 8 9 9 9 9 8 9 9 9 9 10 10 10 9 9 8 8 8 9 9 9 9 10 10 11 11 11 11 11 11 11 11 11 11 11 11 12 12 11 10 9 9 10 10 10 11 11 11 11 11 11 10 10 10 10 11 11 10 9 9 9
7 7 7 7 7 7 8 8 8 8 7 7 7 7 7 7 7 7 8 8 8 8 8 7 8 8 9 9 9 8 7 7 8 9 9 9 9 9 10 10 9 8 8 8 9 9 10 10 10 10 11 10 11 11 12 12 12 11 11 11 11 10 8 8 8 8 8 9 10 10 10 10 10 10 10 10 10 10 10 11 12 13 12 10 9 9
7 7 7 7 7 7 7 7 7 7 7 7 7 7 7 7 7 8 8 8 8 8 8 7 8 8 9 9 9 9 8 7 7 7 8 9 9 9 9 10 10 9 9 8 9 9 9 10 10 10 10 10 11 11 12 12 12 12 11 11 11 11 10 9 9 9 9 10 10 10 10 10 10 10 10 10 10 10 10 10 10 10 11 11 10 10
7 7 7 7 7 7 7 7 7 7 7 7 7 8 8 8 8 8 7 8 8 8 8 7 7 7 8 9 9 9 8 8 7 7 7 8 10 11 10 10 9 9 9 9 9 9 9 9 10 10 10 10 11 11 12 12 13 13 13 12 12 12 12 11 11 10 10 10 10 11 11 10 10 10 10 10 10 10 10 10 10 10 10 10 10 10
6 7 7 7 7 7 8 8 8 7 7 8 8 8 7 7 7 7 8 8 8 8 8 7 7 7 8 9 9 9 9 9 8 7 6 7 7 7 8 8 9 9 8 9 10 10 10 10 10 11 10 10 11 12 12 12 12 12 12 12 12 12 12 11 11 10 10 10 11 11 11 11 10 10 10 11 11 10 10 10 10 10 10 10 10 10
7 7 7 7 7 8 8 8 8 8 8 8 8 8 8 7 7 7 8 8 8 8 8 8 7 8 8 9 8 8 9 10 10 9 8 8 8 8 8 8 8 9 9 9 10 11 11 11 11 11 11 11 12 12 12 12 12 12 12 12 11 11 11 11 10 10 10 10 11 11 11 10 10 10 10 11 11 11 10 10 11 11 11 10 10 10
7 8 8 7 8 8 8 8 8 8 8 8 8 8 8 8 8 8 8 8 8 8 8 8 8 8 9 9 8 9 9 10 10 10 9 9 8 8 8 7 8 8 9 10 11 12 12 13 13 13 12 12 12 12 13 12 12 12 12 11 11 11 11 11 11 10 10 11 11 11 10 9 9 10 10 10 10 11 11 11 11 10 10 10 10 10
7 8 8 8 8 8 8 8 8 8 8 9 9 8 8 9 9 9 8 8 8 7 7 8 8 9 9 9 9 9 9 10 10 9 9 9 8 8 8 8 8 8 8 9 10 10 11 12 14 14 13 13 12 13 13 13 12 12 11 11 11 11 11 11 11 10 10 10 11 11 10 9 9 10 10 11 11 12 12 12 11 11 10 10 10 10
8 8 8 8 8 8 8 8 8 8 9 9 9 9 8 8 8 8 8 7 7 7 7 8 8 9 9 9 9 9 9 9 9 9 9 8 8 8 8 8 8 8 8 8 8 8 8 9 10 13 15 15 15 14 13 13 12 12 11 11 10 10 11 11 11 10 10 10 10 10 11 10 10 9 9 11 12 13 13 12 12 11 10 10 10 11
8 8 8 8 8 8 8 8 8 9 9 9 9 9 9 8 8 8 7 7 7 7 7 8 8 8 9 9 10 10 10 9 9 9 9 8 8 8 8 8 8 8 8 8 8 7 6 6 7 8 11 14 16 16 13 12 12 11 11 11 10 10 10 10 10 11 11 11 10 10 10 10 10 10 9 10 11 12 13 13 12 12 10 10 10 11
Wind_Direction
323 328 333 343 340 333 328 338 338 335 332 333 332 332 334 334 332 329 330 330 330 329 327 326 326 326 328 330 331 332 333 332 332 332 331 330 330 328 327 323 320 315 311 306 301 297 294 291 289 287 286 284 284 283 283 283 283 283 283 283 282 281 280 278 277 275 274 274 274 276 278 280 282 283 283 283 283 283 283 283 282 280 277 275 274 274
319 320 324 339 336 328 318 332 335 334 331 330 330 331 332 330 328 327 327 328 328 327 325 325 325 326 328 330 333 334 334 333 332 331 330 329 327 326 324 323 321 319 315 312 307 303 298 293 289 286 283 280 278 277 276 276 275 275 275 276 276 276 275 275 274 273 272 272 273 274 276 277 278 278 277 277 276 276 275 274 274 273 271 270 270 271
320 316 319 332 330 324 315 326 330 331 328 326 326 327 328 326 325 325 327 326 327 326 325 326 326 327 328 331 333 334 333 332 330 329 327 326 324 323 321 320 319 318 316 315 312 309 306 301 297 292 287 283 280 277 274 272 270 269 269 268 268 269 269 269 269 269 270 270 271 273 274 275 275 275 274 274 273 273 272 271 270 269 267 266 266 267
317 316 322 326 323 318 316 323 326 327 325 322 322 323 324 322 322 322 324 323 324 324 325 326 327 328 329 331 332 332 331 329 328 326 325 323 322 320 319 318 318 317 316 315 314 312 311 309 306 303 299 295 291 288 283 279 276 272 270 267 266 265 263 264 264 265 266 267 268 269 272 273 273 274 275 275 275 275 274 273 271 269 267 266 265 265
316 318 324 325 319 315 319 323 324 324 322 321 321 322 322 321 320 319 320 321 323 324 326 327 329 329 328 329 328 328 327 326 325 323 322 321 320 319 319 319 319 318 317 316 315 314 313 312 311 310 308 305 303 300 296 293 289 285 281 277 274 270 265 265 264 264 265 266 268 269 273 275 276 278 279 280 280 280 279 277 275 273 271 269 268 267
319 322 325 322 318 318 323 324 325 325 323 322 322 322 322 320 318 317 319 322 323 325 325 326 327 326 324 323 323 323 324 323 322 321 320 319 319 319 320 320 320 320 319 318 317 316 315 315 314 313 312 310 309 307 304 302 300 297 295 294 292 290 286 281 278 276 276 278 279 281 283 284 285 285 286 286 286 286 285 283 280 278 276 274 272 270
319 322 324 319 316 317 319 321 326 329 328 326 324 323 321 319 317 317 319 321 322 322 321 321 322 321 319 319 319 320 321 320 319 318 318 319 319 320 321 321 321 321 320 319 319 318 317 317 317 316 315 314 313 311 310 309 308 308 308 308 310 310 307 304 300 296 293 294 293 292 292 292 291 290 290 290 289 289 287 286 284 282 280 277 275 274
319 320 323 320 318 318 315 318 327 333 333 328 325 323 320 318 317 317 318 318 319 319 319 318 317 317 316 317 318 318 318 317 317 317 317 318 319 320 321 321 320 320 319 318 318 317 317 317 317 316 316 315 314 313 313 312 312 313 314 314 314 314 311 308 305 302 300 299 297 296 295 294 292 291 290 290 289 288 287 286 284 283 281 279 278 277
319 319 321 323 323 322 319 320 330 337 334 326 322 319 318 318 318 318 318 318 319 319 318 316 315 314 315 316 316 315 313 312 312 311 312 313 315 317 318 317 317 317 316 315 314 314 314 314 313 313 313 312 311 311 310 310 311 311 311 311 310 309 307 304 302 300 298 297 295 294 293 292 291 290 289 288 287 286 285 284 283 282 281 280 279 278
317 318 318 321 323 322 318 319 326 333 327 315 308 306 309 315 318 320 319 319 319 319 316 314 314 314 314 314 313 312 310 306 303 302 302 303 305 308 309 309 309 309 308 308 308 308 308 308 308 307 307 306 306 306 306 306 307 307 307 306 305 304 302 300 298 296 294 293 292 291 290 289 288 288 287 286 285 284 283 282 281 281 280 279 279 278
316 316 315 315 316 314 309 311 315 318 308 301 297 295 297 311 318 320 319 318 319 319 316 313 312 312 312 312 310 309 306 302 299 297 297 298 300 301 302 301 300 300 300 301 301 301 301 301 301 301 301 301 301 302 302 302 303 303 303 302 301 299 298 296 294 292 291 289 288 287 286 286 285 285 284 283 282 282 281 280 280 279 279 278 278 277
315 315 313 313 312 310 305 302 299 296 297 304 307 310 313 319 320 318 314 315 316 317 316 312 308 306 305 305 305 304 300 297 295 295 295 296 298 299 299 299 297 296 296 295 294 293 293 293 294 294 295 295 296 297 298 298 298 298 298 297 296 295 294 293 291 289 288 286 285 284 283 283 282 282 282 281 281 280 280 279 279 278 278 277 277 276
313 313 311 310 310 310 310 309 306 306 310 315 317 318 319 322 320 314 307 307 309 312 313 309 305 301 297 295 294 294 294 292 292 293 295 296 298 300 300 298 297 296 295 292 289 287 288 288 289 290 290 291 292 293 293 294 294 293 293 293 292 292 291 290 289 288 286 285 284 283 282 281 281 281 281 280 280 279 279 279 278 278 277 277 276 276
320 317 313 312 312 313 313 313 313 315 317 319 317 314 312 314 313 309 304 302 305 307 307 304 302 300 297 290 284 281 284 288 291 294 295 296 299 301 300 296 296 296 294 290 286 284 284 285 286 287 287 287 288 289 289 289 290 289 290 290 290 290 290 289 288 287 287 285 285 284 283 283 282 282 281 280 280 279 278 278 277 277 277 276 276 275
327 322 317 315 314 313 314 314 313 314 315 316 315 311 309 308 308 308 307 305 307 308 306 302 300 299 298 292 280 270 273 284 293 298 299 299 300 302 299 294 293 293 292 288 286 284 283 283 282 283 283 282 283 283 284 285 287 288 289 290 291 291 291 291 290 289 288 287 286 285 285 284 284 283 282 281 280 278 277 277 276 276 275 275 275 274
323 317 313 311 311 311 314 316 316 315 315 315 314 312 310 310 310 311 309 307 308 309 307 306 305 304 301 294 277 257 271 287 295 300 302 301 302 304 301 296 294 293 291 287 286 284 283 279 278 277 278 278 280 281 282 284 286 288 290 291 293 293 293 293 292 290 289 288 287 286 285 284 283 282 282 280 279 278 277 276 275 275 275 274 274 274
313 311 309 309 309 312 316 316 315 313 314 313 313 311 310 310 310 309 307 307 307 307 306 308 308 308 308 305 302 293 288 298 300 301 301 300 302 304 300 294 292 292 291 287 285 284 283 279 277 277 276 277 279 280 282 284 286 288 290 292 293 294 294 294 293 292 290 288 287 285 284 283 283 282 281 280 278 277 276 275 275 275 275 275 275 275
311 311 311 310 312 314 319 317 315 314 314 313 312 310 307 305 305 305 304 304 303 303 304 303 302 303 306 307 313 323 314 308 305 302 300 298 299 301 299 290 288 287 288 286 284 282 281 279 278 278 278 279 280 281 282 284 286 288 290 291 293 293 294 294 294 293 291 289 288 286 285 284 283 282 281 280 278 277 276 275 275 275 275 276 276 276
312 312 312 312 313 315 316 315 315 315 316 315 314 312 308 306 304 302 301 299 298 298 299 299 298 297 297 298 307 319 327 314 307 303 299 296 296 298 298 291 287 286 286 285 285 284 282 279 278 278 278 278 279 280 282 284 286 288 289 291 292 293 294 295 294 294 293 291 289 288 286 285 284 283 281 280 278 277 276 275 275 275 276 276 277 277
310 310 310 312 313 312 310 309 311 314 315 315 314 312 309 309 308 306 304 302 300 298 298 297 296 296 295 297 303 313 324 315 305 299 295 293 294 295 297 292 289 287 286 285 285 285 283 281 279 278 277 277 278 280 282 284 286 287 289 290 292 293 294 295 295 295 294 292 291 289 288 286 285 283 282 280 278 277 276 275 275 276 276 277 278 278
307 307 309 312 311 309 305 308 312 316 319 320 318 314 311 310 309 308 308 307 305 303 301 297 296 297 300 301 304 309 316 309 303 297 293 292 292 293 294 289 287 286 286 287 287 286 282 280 279 278 276 277 279 280 282 284 286 288 289 290 292 293 294 295 295 295 294 293 291 290 288 286 285 283 282 280 279 277 276 275 276 276 277 278 278 278
303 305 308 308 306 304 304 309 315 319 322 321 318 313 310 310 308 307 307 306 303 301 298 295 296 298 300 298 299 300 303 298 294 292 293 291 290 290 291 288 287 287 288 289 290 288 283 280 277 276 276 277 279 281 283 285 286 288 289 290 291 292 293 294 295 295 294 293 292 290 289 287 285 284 282 280 279 277 276 276 276 277 278 279 279 279
298 302 307 308 308 310 312 315 317 318 319 315 310 305 304 304 302 301 301 300 298 296 295 295 295 295 293 291 292 293 293 290 289 288 290 288 289 293 300 298 295 292 290 292 292 291 287 284 281 280 279 279 279 281 283 284 286 287 289 290 291 292 293 294 294 294 294 294 293 292 290 288 286 284 282 280 279 277 276 276 277 278 279 280 280 280
303 307 313 317 319 319 317 314 312 311 309 305 300 297 294 293 292 292 293 293 293 293 293 294 292 289 286 287 288 289 290 290 290 289 288 287 292 298 308 306 300 295 293 295 296 296 294 291 288 287 285 281 281 281 282 284 285 287 288 289 290 292 293 293 294 294 294 294 293 293 292 290 288 286 283 281 280 278 277 278 278 279 281 282 283 283
321 323 324 322 320 317 313 309 307 305 304 302 299 297 294 292 291 291 291 290 290 291 292 291 290 289 289 291 292 292 294 296 296 294 291 290 293 298 305 304 301 297 296 298 298 298 296 294 292 290 289 285 283 283 284 285 286 287 288 289 290 291 291 292 293 293 294 295 295 295 294 292 291 289 286 284 282 281 280 280 281 282 284 285 286 286
328 325 321 317 314 311 309 306 305 304 304 303 302 301 299 298 296 294 292 291 292 293 294 292 291 292 296 298 298 298 300 300 297 294 292 291 293 296 299 299 297 295 295 297 297 297 296 294 292 291 291 290 288 287 286 287 287 287 288 288 289 290 290 292 293 295 296 297 298 298 297 296 294 292 290 288 286 285 284 283 284 285 286 288 288 287
324 320 316 313 311 309 308 306 305 305 305 304 304 303 302 301 299 296 293 296 299 301 300 297 297 298 300 298 297 298 303 302 298 294 292 291 291 292 295 295 295 295 296 295 296 297 298 297 296 296 295 294 293 291 287 287 287 287 287 288 289 290 292 294 295 296 297 298 298 297 297 296 295 293 292 290 289 288 287 286 286 287 287 288 288 286
320 316 313 311 310 309 308 308 308 308 308 307 306 306 305 304 301 298 298 303 305 304 300 298 298 299 299 298 298 300 302 299 297 296 301 296 292 291 296 298 299 300 300 299 299 299 298 295 294 294 293 292 291 289 287 287 288 288 289 290 292 293 294 295 295 295 295 294 294 293 293 292 291 291 290 289 289 288 288 287 287 287 287 286 284 280
316 313 310 309 309 309 309 309 308 308 307 307 308 310 310 307 303 300 300 304 303 300 296 294 294 296 297 298 299 298 295 292 295 306 320 308 297 293 297 299 302 304 306 304 301 297 291 288 288 289 290 292 292 292 292 292 292 292 293 292 292 292 292 292 291 291 290 289 289 288 288 287 287 287 287 287 286 286 286 286 286 285 285 282 278 275
316 314 310 309 308 308 308 305 303 303 304 306 308 310 310 305 299 295 295 298 297 295 293 294 295 296 298 300 299 295 288 290 303 321 329 309 296 292 297 300 304 310 313 309 304 297 290 286 287 289 292 295 296 297 297 297 295 293 292 291 290 289 289 288 288 287 287 286 286 285 284 284 284 284 284 284 283 283 283 283 283 282 280 277 274 272
319 317 314 312 310 307 303 299 297 297 300 302 304 304 303 298 293 290 290 292 294 294 295 296 297 298 299 300 298 294 290 299 313 322 321 303 293 294 303 304 306 308 311 309 306 302 299 295 293 293 296 297 297 296 295 294 293 291 290 289 288 287 286 286 286 286 285 285 284 284 283 283 282 282 282 281 281 281 281 281 280 279 277 275 272 270
319 317 315 313 310 306 302 298 296 295 295 295 295 294 292 291 290 289 290 293 295 296 297 298 298 296 295 292 289 288 289 299 311 317 318 306 299 299 306 303 302 301 302 299 296 295 297 298 300 301 300 297 295 293 292 291 290 290 289 288 287 286 287 287 287 287 286 285 285 284 283 283 282 281 281 280 280 280 279 279 279 278 276 275 273 271
316 314 311 309 307 304 301 298 294 292 291 290 289 288 287 286 287 288 290 292 294 296 297 297 296 295 293 289 285 284 286 294 305 313 317 311 304 300 302 300 299 298 299 293 287 284 284 290 296 300 298 294 291 290 290 289 288 287 287 287 287 287 288 289 288 287 287 286 286 285 284 283 282 281 280 280 279 279 278 278 277 276 275 274 274 273
313 310 308 307 306 303 301 297 294 292 292 293 295 296 295 293 291 290 292 293 293 294 294 294 294 293 293 290 287 285 285 291 301 308 313 307 301 297 298 296 296 296 297 292 288 285 281 284 289 293 295 292 289 287 287 288 288 288 287 285 285 286 288 288 288 287 286 286 285 285 284 283 281 280 279 278 277 277 276 276 275 274 273 272 272 272
309 308 308 308 308 308 307 307 306 306 305 306 307 308 308 305 302 298 296 295 293 291 289 287 286 286 287 287 287 286 286 291 298 303 305 300 297 294 295 292 293 295 295 292 290 288 285 285 286 289 292 293 291 288 288 289 290 289 287 283 282 283 284 285 285 285 285 284 283 281 281 280 278 277 276 275 274 273 273 273 272 272 270 270 269 268
309 309 312 314 315 315 315 317 317 317 316 314 313 312 311 308 303 299 295 292 288 284 281 278 276 275 275 276 278 281 284 288 293 295 295 292 291 290 289 287 289 291 290 288 287 287 287 287 288 289 290 291 292 291 290 290 289 289 286 283 282 281 281 280 280 280 281 280 279 278 277 276 275 273 272 272 271 271 271 271 270 270 269 268 267 266
311 313 317 319 319 319 319 319 319 318 315 314 312 311 310 305 301 296 291 285 280 276 274 272 270 268 266 266 269 272 277 282 285 285 285 284 283 282 280 282 283 284 283 284 286 287 288 288 289 289 287 286 287 290 294 294 293 290 287 287 286 285 283 281 278 276 274 274 274 274 274 273 272 272 271 271 271 271 271 270 269 268 268 267 267 266
315 318 320 320 320 319 318 318 316 315 314 314 313 311 308 303 299 295 290 285 279 275 273 271 269 267 265 265 265 267 270 273 275 276 276 276 275 273 274 276 277 277 276 279 282 285 287 287 288 289 287 284 284 286 291 295 295 293 291 290 288 286 284 282 277 273 270 270 271 272 272 272 272 272 272 271 271 271 270 269 268 267 267 266 266 265
318 318 318 318 318 317 317 315 313 312 312 310 308 306 303 300 298 295 292 288 283 279 275 272 271 269 266 265 265 265 266 267 267 267 267 266 265 266 269 272 274 275 275 276 277 279 281 282 284 286 289 290 290 291 292 293 293 294 294 292 287 281 278 278 277 275 274 274 275 275 275 274 273 271 271 270 269 268 267 267 265 264 264 264 265 265
318 316 314 314 315 314 313 311 309 308 307 304 302 301 301 300 300 298 296 293 289 286 282 277 274 272 270 268 267 267 267 265 264 263 262 259 257 258 262 267 271 275 277 276 275 275 276 279 281 284 286 289 291 293 293 290 289 290 292 290 286 281 279 280 280 280 279 277 277 277 277 275 273 271 269 267 265 264 263 263 263 261 259 259 261 262
315 312 311 311 311 310 308 307 305 304 303 302 302 303 304 305 305 304 303 300 297 294 291 288 285 283 280 276 274 273 272 269 266 264 261 256 253 253 257 262 267 272 276 276 275 275 275 277 280 282 282 284 285 286 285 284 284 285 286 284 283 284 286 283 280 278 276 274 272 272 273 273 272 270 269 267 265 262 260 260 260 258 256 254 253 255
312 310 309 310 309 308 306 305 303 302 302 303 304 305 307 307 307 307 306 304 302 301 300 300 299 297 294 289 284 279 275 271 265 261 258 253 250 250 254 259 264 269 273 275 275 273 271 273 274 276 278 280 282 283 282 282 282 281 280 279 281 284 284 278 273 270 270 270 270 270 271 272 272 272 271 270 268 266 263 260 258 256 254 251 248 247
309 307 306 305 304 303 303 304 305 305 307 307 306 305 305 305 304 303 302 302 302 302 303 301 300 298 296 294 293 289 282 272 265 261 259 253 250 249 253 257 260 263 267 271 272 273 271 270 270 271 274 276 278 279 281 283 283 280 276 276 279 281 282 278 276 274 272 272 272 272 272 273 273 274 274 272 271 269 266 263 260 257 253 251 248 245
303 302 302 302 303 304 305 307 307 308 308 306 305 303 303 302 300 298 297 297 298 299 300 299 296 294 292 293 295 297 295 290 280 271 267 262 258 255 257 258 259 259 260 264 268 273 276 273 271 271 273 274 274 275 277 280 281 280 278 276 274 272 271 277 281 281 278 274 272 271 271 273 274 275 274 272 270 268 265 262 259 255 251 249 247 246
298 299 301 303 306 308 309 308 307 307 306 304 302 301 301 300 299 296 293 293 294 295 295 296 296 295 292 294 298 301 303 302 298 290 280 272 269 267 266 264 263 262 260 260 263 267 272 274 274 275 275 272 271 271 273 277 278 279 278 276 273 270 267 271 274 275 274 273 271 270 270 271 273 273 273 271 269 267 263 261 258 255 251 248 245 244
299 302 304 306 307 307 307 306 306 304 302 301 299 299 299 298 296 292 290 290 291 292 293 294 294 293 293 297 301 303 304 303 302 300 297 289 282 277 271 267 265 264 262 261 260 261 262 266 271 275 277 274 271 268 267 271 274 276 276 276 274 273 271 271 270 269 269 270 270 269 269 269 269 269 269 270 269 268 265 261 258 255 252 248 246 244
304 305 306 306 306 305 303 303 303 301 299 299 299 299 299 298 296 293 291 291 291 292 294 294 292 289 289 293 297 300 301 302 303 303 302 299 295 290 283 276 270 266 263 261 260 259 258 259 261 265 269 272 272 271 269 268 269 271 273 275 275 274 273 271 269 268 266 266 266 267 268 268 266 266 266 269 269 269 266 263 259 256 252 249 246 244
306 305 305 303 302 301 301 301 300 299 298 298 298 298 299 298 297 296 293 294 294 294 294 293 292 290 288 289 291 293 295 296 298 300 301 300 298 295 291 286 280 273 267 264 262 260 258 256 255 254 256 261 266 270 272 270 269 268 270 273 274 274 272 272 271 269 267 265 264 263 263 262 262 263 266 269 269 268 266 264 261 257 253 250 247 245
304 303 301 300 299 299 299 300 299 298 297 298 298 299 299 297 297 296 294 294 293 292 291 291 291 291 291 290 291 291 292 292 292 294 295 296 296 295 293 291 288 283 278 271 267 263 261 256 251 247 244 247 253 261 267 268 268 268 269 270 270 271 272 272 272 271 268 266 263 259 255 254 255 257 262 265 267 267 267 266 263 259 255 252 249 247
301 299 299 298 297 297 297 298 298 297 296 297 297 298 298 298 297 296 293 292 291 290 288 289 289 290 290 291 292 292 291 291 291 291 291 293 294 295 294 294 293 292 289 283 277 272 269 264 255 246 238 236 240 247 257 263 266 267 266 265 265 266 269 271 271 270 268 267 264 259 254 252 251 250 252 257 262 265 267 266 263 260 255 252 250 248
300 299 298 297 296 296 296 296 296 295 294 295 295 296 297 297 297 296 294 292 291 289 288 287 287 287 287 289 290 290 290 290 290 290 290 292 293 293 292 293 294 294 292 290 288 286 284 283 277 265 249 239 235 236 244 253 260 264 265 263 262 263 265 267 269 269 268 266 265 261 257 254 250 248 246 252 258 263 265 265 263 260 256 252 250 249